Time,TemperatureF,DewpointF,PressureIn,WindDirection,WindDirectionDegrees,WindSpeedMPH,WindSpeedGustMPH,Humidity,HourlyPrecipIn,Conditions,Clouds,dailyrainin,SoftwareType,DateUTC
2013-07-15 00:00:00,84.3,72.0,30.16,SSE,150,2.0,5.0,66,0.00,,,0.00,weatherlink.com 1.10,2013-07-15 04:00:00,
2013-07-15 00:15:00,84.3,71.0,30.16,SE,132,1.0,3.0,65,0.00,,,0.00,weatherlink.com 1.10,2013-07-15 04:15:00,
2013-07-15 00:30:00,84.3,71.0,30.16,ESE,108,2.0,6.0,64,0.00,,,0.00,weatherlink.com 1.10,2013-07-15 04:30:00,
2013-07-15 00:45:00,84.1,71.0,30.15,SE,132,1.0,8.0,64,0.00,,,0.00,weatherlink.com 1.10,2013-07-15 04:45:00,
2013-07-15 01:00:00,83.9,70.0,30.15,ESE,123,8.0,8.0,64,0.00,,,0.00,weatherlink.com 1.10,2013-07-15 05:00:00,
2013-07-15 01:15:00,83.6,70.0,30.15,SE,143,1.0,6.0,64,0.00,,,0.00,weatherlink.com 1.10,2013-07-15 05:15:00,
2013-07-15 01:30:00,83.2,71.0,30.15,WSW,240,2.0,7.0,66,0.00,,,0.00,weatherlink.com 1.10,2013-07-15 05:30:00,
2013-07-15 01:45:00,82.9,71.0,30.14,NW,313,3.0,5.0,67,0.00,,,0.00,weatherlink.com 1.10,2013-07-15 05:45:00,
2013-07-15 02:00:00,82.6,71.0,30.15,SE,131,3.0,4.0,67,0.00,,,0.00,weatherlink.com 1.10,2013-07-15 06:00:00,
2013-07-15 02:15:00,82.3,71.0,30.15,SE,143,2.0,7.0,68,0.00,,,0.00,weatherlink.com 1.10,2013-07-15 06:15:00,
2013-07-15 02:30:00,82.1,71.0,30.15,ESE,120,2.0,6.0,68,0.00,,,0.00,weatherlink.com 1.10,2013-07-15 06:30:00,
2013-07-15 02:46:00,81.9,71.0,30.15,SSW,197,2.0,4.0,69,0.00,,,0.00,weatherlink.com 1.10,2013-07-15 06:46:00,
2013-07-15 03:01:00,81.7,71.0,30.15,SE,137,2.0,8.0,69,0.00,,,0.00,weatherlink.com 1.10,2013-07-15 07:01:00,
2013-07-15 03:16:00,81.4,71.0,30.14,SW,224,3.0,5.0,70,0.00,,,0.00,weatherlink.com 1.10,2013-07-15 07:16:00,
2013-07-15 03:31:00,81.2,71.0,30.14,WSW,252,1.0,5.0,70,0.00,,,0.00,weatherlink.com 1.10,2013-07-15 07:31:00,
2013-07-15 03:46:00,81.1,71.0,30.15,SE,127,2.0,4.0,71,0.00,,,0.00,weatherlink.com 1.10,2013-07-15 07:46:00,
2013-07-15 04:01:00,81.0,71.0,30.14,SW,235,2.0,5.0,71,0.00,,,0.00,weatherlink.com 1.10,2013-07-15 08:01:00,
2013-07-15 04:16:00,81.0,71.0,30.14,East,96,3.0,7.0,72,0.00,,,0.00,weatherlink.com 1.10,2013-07-15 08:16:00,
2013-07-15 04:31:00,81.1,71.0,30.14,ENE,65,1.0,6.0,72,0.00,,,0.00,weatherlink.com 1.10,2013-07-15 08:31:00,
2013-07-15 04:46:00,81.0,71.0,30.14,SE,134,0.0,5.0,72,0.00,,,0.00,weatherlink.com 1.10,2013-07-15 08:46:00,
2013-07-15 05:01:00,80.9,72.0,30.14,SE,134,1.0,5.0,73,0.00,,,0.00,weatherlink.com 1.10,2013-07-15 09:01:00,
2013-07-15 05:16:00,80.8,71.0,30.15,SSW,195,2.0,5.0,73,0.00,,,0.00,weatherlink.com 1.10,2013-07-15 09:16:00,
2013-07-15 05:31:00,80.6,71.0,30.15,SSE,155,0.0,3.0,73,0.00,,,0.00,weatherlink.com 1.10,2013-07-15 09:31:00,
2013-07-15 05:46:00,80.3,71.0,30.15,SSE,153,2.0,4.0,74,0.00,,,0.00,weatherlink.com 1.10,2013-07-15 09:46:00,
2013-07-15 06:01:00,86.8,73.0,30.15,SSE,155,3.0,5.0,63,0.00,,,0.00,weatherlink.com 1.10,2013-07-15 10:01:00,
2013-07-15 06:16:00,91.3,72.0,30.15,South,176,1.0,5.0,54,0.00,,,0.00,weatherlink.com 1.10,2013-07-15 10:16:00,
2013-07-15 06:31:00,91.4,72.0,30.15,SSE,162,3.0,4.0,54,0.00,,,0.00,weatherlink.com 1.10,2013-07-15 10:31:00,
2013-07-15 06:46:00,91.7,72.0,30.16,SE,142,4.0,4.0,53,0.00,,,0.00,weatherlink.com 1.10,2013-07-15 10:46:00,
2013-07-15 07:01:00,91.8,73.0,30.16,SE,132,3.0,4.0,54,0.00,,,0.00,weatherlink.com 1.10,2013-07-15 11:01:00,
2013-07-15 07:16:00,91.5,72.0,30.16,SE,145,3.0,4.0,53,0.00,,,0.00,weatherlink.com 1.10,2013-07-15 11:16:00,
2013-07-15 07:31:00,92.5,72.0,30.16,SE,135,3.0,6.0,51,0.00,,,0.00,weatherlink.com 1.10,2013-07-15 11:31:00,
2013-07-15 07:46:00,93.8,72.0,30.16,SE,141,3.0,5.0,50,0.00,,,0.00,weatherlink.com 1.10,2013-07-15 11:46:00,
2013-07-15 08:01:00,94.8,72.0,30.16,West,264,2.0,4.0,47,0.00,,,0.00,weatherlink.com 1.10,2013-07-15 12:01:00,
2013-07-15 08:16:00,94.5,71.0,30.15,SSE,152,3.0,5.0,47,0.00,,,0.00,weatherlink.com 1.10,2013-07-15 12:16:00,
2013-07-15 08:31:00,92.6,71.0,30.15,SSE,147,3.0,5.0,49,0.00,,,0.00,weatherlink.com 1.10,2013-07-15 12:31:00,
2013-07-15 08:46:00,92.3,72.0,30.16,SSW,195,2.0,5.0,51,0.00,,,0.00,weatherlink.com 1.10,2013-07-15 12:46:00,
2013-07-15 09:01:00,96.1,72.0,30.15,SSE,162,1.0,5.0,46,0.00,,,0.00,weatherlink.com 1.10,2013-07-15 13:01:00,
2013-07-15 09:16:00,96.4,71.0,30.15,SSE,155,2.0,5.0,44,0.00,,,0.00,weatherlink.com 1.10,2013-07-15 13:16:00,
2013-07-15 09:31:00,92.4,71.0,30.14,SE,131,3.0,5.0,50,0.00,,,0.00,weatherlink.com 1.10,2013-07-15 13:31:00,
2013-07-15 09:46:00,96.4,71.0,30.14,East,97,3.0,4.0,44,0.00,,,0.00,weatherlink.com 1.10,2013-07-15 13:46:00,
2013-07-15 10:01:00,95.2,71.0,30.14,NNW,337,3.0,6.0,45,0.00,,,0.00,weatherlink.com 1.10,2013-07-15 14:01:00,
2013-07-15 10:16:00,95.7,70.0,30.14,East,88,2.0,9.0,44,0.00,,,0.00,weatherlink.com 1.10,2013-07-15 14:16:00,
2013-07-15 10:31:00,97.8,71.0,30.13,ESE,120,1.0,6.0,42,0.00,,,0.00,weatherlink.com 1.10,2013-07-15 14:31:00,
2013-07-15 10:46:00,94.5,71.0,30.13,NNW,340,5.0,5.0,47,0.00,,,0.00,weatherlink.com 1.10,2013-07-15 14:46:00,
2013-07-15 11:17:00,99.1,72.0,30.12,SE,142,2.0,6.0,41,0.00,,,0.00,weatherlink.com 1.10,2013-07-15 15:17:00,
2013-07-15 11:32:00,96.8,71.0,30.12,SE,139,0.0,5.0,43,0.00,,,0.00,weatherlink.com 1.10,2013-07-15 15:32:00,
2013-07-15 11:47:00,97.8,72.0,30.12,SSE,162,3.0,7.0,43,0.00,,,0.00,weatherlink.com 1.10,2013-07-15 15:47:00,
2013-07-15 12:02:00,102.6,72.0,30.12,SSE,153,2.0,5.0,38,0.00,,,0.00,weatherlink.com 1.10,2013-07-15 16:02:00,
2013-07-15 12:17:00,100.1,72.0,30.11,ENE,62,1.0,5.0,41,0.00,,,0.00,weatherlink.com 1.10,2013-07-15 16:17:00,
2013-07-15 12:32:00,98.7,71.0,30.11,SE,129,2.0,6.0,41,0.00,,,0.00,weatherlink.com 1.10,2013-07-15 16:32:00,
2013-07-15 12:47:00,99.0,71.0,30.10,SSE,160,3.0,6.0,41,0.00,,,0.00,weatherlink.com 1.10,2013-07-15 16:47:00,
2013-07-15 13:02:00,100.0,72.0,30.10,NNE,13,2.0,4.0,40,0.00,,,0.00,weatherlink.com 1.10,2013-07-15 17:02:00,
2013-07-15 13:17:00,101.8,72.0,30.10,North,6,1.0,5.0,38,0.00,,,0.00,weatherlink.com 1.10,2013-07-15 17:17:00,
2013-07-15 13:32:00,101.1,70.0,30.09,NNE,23,3.0,4.0,37,0.00,,,0.00,weatherlink.com 1.10,2013-07-15 17:32:00,
2013-07-15 14:02:00,99.9,69.0,30.09,SE,127,3.0,7.0,37,0.00,,,0.00,weatherlink.com 1.10,2013-07-15 18:02:00,
2013-07-15 14:17:00,98.4,70.0,30.08,NNE,30,2.0,7.0,40,0.00,,,0.00,weatherlink.com 1.10,2013-07-15 18:17:00,
2013-07-15 14:33:00,101.9,71.0,30.08,NNE,15,3.0,7.0,37,0.00,,,0.00,weatherlink.com 1.10,2013-07-15 18:33:00,
2013-07-15 14:47:00,98.9,71.0,30.08,East,88,1.0,4.0,40,0.00,,,0.00,weatherlink.com 1.10,2013-07-15 18:47:00,
2013-07-15 15:02:00,99.7,71.0,30.08,North,358,2.0,5.0,39,0.00,,,0.00,weatherlink.com 1.10,2013-07-15 19:02:00,
2013-07-15 15:17:00,101.3,71.0,30.07,NW,323,2.0,5.0,38,0.00,,,0.00,weatherlink.com 1.10,2013-07-15 19:17:00,
2013-07-15 15:32:00,100.0,72.0,30.07,SE,141,4.0,4.0,40,0.00,,,0.00,weatherlink.com 1.10,2013-07-15 19:32:00,
2013-07-15 16:02:00,100.7,71.0,30.06,SSE,156,4.0,7.0,38,0.00,,,0.00,weatherlink.com 1.10,2013-07-15 20:02:00,
2013-07-15 16:17:00,99.3,70.0,30.06,SSW,200,2.0,8.0,39,0.00,,,0.00,weatherlink.com 1.10,2013-07-15 20:17:00,
2013-07-15 16:32:00,103.6,71.0,30.05,SSE,153,2.0,5.0,35,0.00,,,0.00,weatherlink.com 1.10,2013-07-15 20:32:00,
2013-07-15 16:47:00,100.1,70.0,30.05,NNE,16,2.0,6.0,38,0.00,,,0.00,weatherlink.com 1.10,2013-07-15 20:47:00,
2013-07-15 17:02:00,103.1,71.0,30.05,SSW,208,2.0,6.0,36,0.00,,,0.00,weatherlink.com 1.10,2013-07-15 21:02:00,
2013-07-15 17:17:00,101.8,69.0,30.05,South,173,1.0,6.0,34,0.00,,,0.00,weatherlink.com 1.10,2013-07-15 21:17:00,
2013-07-15 17:32:00,103.9,69.0,30.04,East,97,4.0,6.0,32,0.00,,,0.00,weatherlink.com 1.10,2013-07-15 21:32:00,
2013-07-15 17:47:00,104.1,70.0,30.04,SSE,155,3.0,5.0,33,0.00,,,0.00,weatherlink.com 1.10,2013-07-15 21:47:00,
2013-07-15 18:02:00,101.8,68.0,30.05,SSE,147,2.0,7.0,33,0.00,,,0.00,weatherlink.com 1.10,2013-07-15 22:02:00,
2013-07-15 18:17:00,98.8,67.0,30.04,SSE,152,3.0,7.0,35,0.00,,,0.00,weatherlink.com 1.10,2013-07-15 22:17:00,
2013-07-15 18:47:00,101.9,70.0,30.04,SSE,166,4.0,5.0,35,0.00,,,0.00,weatherlink.com 1.10,2013-07-15 22:47:00,
2013-07-15 19:02:00,95.0,69.0,30.05,WNW,289,1.0,5.0,43,0.00,,,0.00,weatherlink.com 1.10,2013-07-15 23:02:00,
2013-07-15 19:17:00,98.5,70.0,30.05,NNE,19,2.0,4.0,39,0.00,,,0.00,weatherlink.com 1.10,2013-07-15 23:17:00,
2013-07-15 19:32:00,93.9,69.0,30.05,NW,315,2.0,4.0,44,0.00,,,0.00,weatherlink.com 1.10,2013-07-15 23:32:00,
2013-07-15 20:02:00,92.1,71.0,30.05,North,357,0.0,4.0,50,0.00,,,0.00,weatherlink.com 1.10,2013-07-16 00:02:00,
2013-07-15 20:17:00,98.7,73.0,30.05,ESE,122,2.0,4.0,43,0.00,,,0.00,weatherlink.com 1.10,2013-07-16 00:17:00,
2013-07-15 20:47:00,90.1,71.0,30.05,NNW,332,0.0,1.0,54,0.00,,,0.00,weatherlink.com 1.10,2013-07-16 00:47:00,
2013-07-15 21:02:00,89.2,71.0,30.05,ESE,110,0.0,2.0,56,0.00,,,0.00,weatherlink.com 1.10,2013-07-16 01:02:00,
2013-07-15 21:32:00,88.4,72.0,30.06,North,8,0.0,1.0,59,0.00,,,0.00,weatherlink.com 1.10,2013-07-16 01:32:00,
2013-07-15 21:47:00,88.1,72.0,30.06,North,359,0.0,1.0,59,0.00,,,0.00,weatherlink.com 1.10,2013-07-16 01:47:00,
2013-07-15 22:02:00,88.0,71.0,30.06,WNW,290,0.0,2.0,58,0.00,,,0.00,weatherlink.com 1.10,2013-07-16 02:02:00,
2013-07-15 22:17:00,87.7,71.0,30.07,North,5,0.0,1.0,58,0.00,,,0.00,weatherlink.com 1.10,2013-07-16 02:17:00,
2013-07-15 22:47:00,87.2,71.0,30.07,NNW,341,0.0,1.0,58,0.00,,,0.00,weatherlink.com 1.10,2013-07-16 02:47:00,
2013-07-15 23:17:00,86.8,71.0,30.07,NNE,19,1.0,2.0,60,0.00,,,0.00,weatherlink.com 1.10,2013-07-16 03:17:00,
2013-07-15 23:32:00,86.7,72.0,30.07,North,349,0.0,1.0,61,0.00,,,0.00,weatherlink.com 1.10,2013-07-16 03:32:00,